Weather History for Molokai, HI

Change the Weather History Date:

Wednesday, November 21, 2012

  Actual Average Record
Temperature  
Mean Temperature 74 °F -  
Max Temperature 81 °F 80 °F 87 °F (1980)
Min Temperature 68 °F 67 °F 61 °F (2004)
Cooling Degree Days 10    
Growing Degree Days 24 (Base 50)    
Moisture  
Dew Point 63 °F    
Average Humidity 68    
Maximum Humidity 78    
Minimum Humidity 54    
Precipitation  
Precipitation 0.00 in - - ()
Sea Level Pressure  
Sea Level Pressure 29.99 in    
Wind  
Wind Speed 2 mph (NE)    
Max Wind Speed 8 mph    
Max Gust Speed -    
Visibility 10 miles    
Events      
Averages and records for this station are not official NWS values.
T = Trace of Precipitation, MM = Missing Value Source: NWS Daily Summary

Daily Weather History Graph

Daily Weather History Graph

Search for Another Location

Airport:

Trip Planner

Search our weather history database for the weather conditions in past years. The results will help you decide how hot, cold, wet, or windy it might be!

Date:

Astronomy

Nov. 21, 2012 Rise Set
Actual Time 6:43 AM HST 5:45 PM HST
Civil Twilight 6:19 AM HST 6:09 PM HST
Nautical Twilight 5:52 AM HST 6:36 PM HST
Astronomical Twilight 5:25 AM HST 7:03 PM HST
Moon 1:27 PM HST (11/21) 12:57 AM HST (11/21)
Length of Visible Light 11h 49m
Length of Day
11h 02m
Waxing Gibbous, 63% of the Moon is Illuminated
Nov 21
Waxing Gibbous
Nov 28
Full
Dec 6
Last Quarter
Dec 12
New
Dec 19
First Quarter

Hourly Weather History & Observations

Time (HST) Temp. Heat Index Dew Point Humidity Pressure Visibility Wind Dir Wind Speed Gust Speed Precip Events Conditions
12:54 AM 72.0 °F - 61.0 °F 68% 30.01 in 10.0 mi Calm Calm - N/A   Partly Cloudy
1:54 AM 69.1 °F - 60.1 °F 73% 30.00 in 10.0 mi Calm Calm - N/A   Partly Cloudy
2:54 AM 69.1 °F - 61.0 °F 75% 30.00 in 10.0 mi Calm Calm - N/A   Mostly Cloudy
3:54 AM 71.1 °F - 63.0 °F 75% 29.98 in 10.0 mi NNE 4.6 mph - N/A   Clear
4:54 AM 68.0 °F - 61.0 °F 78% 29.98 in 10.0 mi Calm Calm - N/A   Clear
5:54 AM 68.0 °F - 61.0 °F 78% 29.99 in 10.0 mi NNE 3.5 mph - N/A   Clear
6:54 AM 70.0 °F - 62.1 °F 76% 30.00 in 10.0 mi ENE 4.6 mph - N/A   Mostly Cloudy
7:54 AM 73.0 °F - 64.0 °F 73% 30.01 in 10.0 mi Calm Calm - N/A   Mostly Cloudy
8:54 AM 75.0 °F - 64.0 °F 69% 30.03 in 10.0 mi SE 3.5 mph - N/A   Scattered Clouds
9:54 AM 78.1 °F - 63.0 °F 60% 30.04 in 10.0 mi West 3.5 mph - N/A   Scattered Clouds
10:54 AM 80.1 °F 81.5 °F 63.0 °F 56% 30.01 in 10.0 mi NNW 8.1 mph - N/A   Clear
11:54 AM 81.0 °F 82.2 °F 63.0 °F 54% 29.98 in 10.0 mi Variable 5.8 mph - N/A   Scattered Clouds
12:54 PM 80.1 °F 81.2 °F 62.1 °F 54% 29.96 in 10.0 mi Variable 4.6 mph - N/A   Mostly Cloudy
1:54 PM 80.1 °F 81.2 °F 62.1 °F 54% 29.93 in 10.0 mi North 5.8 mph - N/A   Scattered Clouds
2:54 PM 80.1 °F 81.5 °F 63.0 °F 56% 29.93 in 10.0 mi North 8.1 mph - N/A   Clear
3:54 PM 80.1 °F 81.5 °F 63.0 °F 56% 29.93 in 10.0 mi ESE 4.6 mph - N/A   Scattered Clouds
4:54 PM 78.1 °F - 64.0 °F 62% 29.94 in 10.0 mi South 5.8 mph - N/A   Clear
5:54 PM 75.9 °F - 64.0 °F 67% 29.96 in 10.0 mi South 3.5 mph - N/A   Clear
6:54 PM 75.0 °F - 64.0 °F 69% 29.99 in 10.0 mi Calm Calm - N/A   Clear
7:54 PM 71.1 °F - 62.1 °F 73% 30.01 in 10.0 mi Calm Calm - N/A   Clear
8:54 PM 71.1 °F - 63.0 °F 75% 30.01 in 10.0 mi Calm Calm - N/A   Clear
9:54 PM 70.0 °F - 63.0 °F 78% 30.02 in 10.0 mi Calm Calm - N/A   Clear
10:54 PM 70.0 °F - 62.1 °F 76% 30.01 in 10.0 mi Calm Calm - N/A   Clear
11:54 PM 71.1 °F - 63.0 °F 75% 29.99 in 10.0 mi Calm Calm - N/A   Partly Cloudy